[[{"header":{"parameterUnit":"m.s-1","parameterCategory":1,"la1":30.2991,"la2":30.254,"lo1":-89.0895,"lo2":-89.0444,"dx":0.0017,"dy":0.0017,"nx":28,"ny":28,"refTime":"2022-11-12T09:00:00:Z","depth":0,"parameterNumber":2,"parameterNumberName":"U-component_of_WINDS"},"data":[0,0,0,0,0,0,0,0,0,0,0,0,0,0,0,0,0,0,0,0,0,0,0,0,0,0,0,0,0,0,0,0,0,0,0,0,0,0,0,0,0,0,0,0,0,0,0,0,0,0,0,0,0,0,0,0,0,0,-1.088,-1.0881,0,-1.0952,-1.0953,-1.0953,-1.0917,-1.0915,-1.0913,-1.0911,-1.0986,-1.099,-1.0993,0,0,0,0,0,0,0,0,0,0,0,0,0,-1.071,-1.0713,-1.088,-1.0881,-1.0882,-1.0952,-1.0953,-1.0954,-1.0917,-1.0915,-1.0912,-1.091,-1.0985,-1.0989,-1.0994,0,0,0,0,0,0,0,0,0,0,0,0,0,-1.0783,-1.0714,-1.088,-1.0872,-1.0872,-1.0952,-1.0953,-1.0954,-1.0918,-1.0915,-1.0912,-1.0909,-1.0983,-1.0989,-1.0994,-1.1086,0,0,-1.1012,-1.1014,0,0,0,0,0,0,0,0,-1.0779,-1.0789,-1.0872,-1.0872,-1.0873,-1.0922,-1.092,-1.0998,-1.0918,-1.09,-1.0911,-1.0908,-1.0967,-1.0974,-1.0994,-1.109,-1.1093,-1.1012,-1.1016,-1.1018,-1.102,0,0,0,0,0,0,0,-1.0774,-1.0786,-1.0908,-1.0873,-1.0874,-1.0864,-1.0872,-1.0935,-1.0949,-1.0902,-1.0899,-1.0908,-1.0967,-1.0988,-1.0995,-1.1094,-1.1012,-1.1017,-1.102,-1.1023,-1.1268,-1.1271,0,0,0,0,0,0,-1.0769,-1.0782,-1.0906,-1.091,-1.0818,-1.087,-1.0878,-1.0909,-1.0948,-1.0951,-1.091,-1.0906,-1.098,-1.0989,-1.0998,-1.1108,-1.1018,-1.1023,-1.1026,-1.1265,-1.1269,-1.1272,0,0,0,0,0,0,-1.0766,-1.0781,-1.0903,-1.0846,-1.086,-1.0876,-1.0911,-1.0912,-1.0934,-1.0955,-1.0957,-1.093,-1.0978,-1.099,-1.1064,-1.111,-1.1026,-1.1031,-1.1261,-1.1266,-1.127,-1.1329,0,0,0,0,0,0,-1.0761,-1.078,-1.0815,-1.0847,-1.0864,-1.0969,-1.0914,-1.0916,-1.0944,-1.0939,-1.0974,-1.0977,-1.0977,-1.1056,-1.107,-1.1116,-1.1035,-1.1257,-1.1263,-1.1269,-1.1323,-1.1335,-1.1346,0,0,0,0,0,-1.0755,-1.0829,-1.0817,-1.0832,-1.0908,-1.0972,-1.0981,-1.098,-1.0947,-1.0983,-1.0996,-1.0976,-1.1102,-1.1064,-1.1079,-1.1128,-1.1254,-1.1262,-1.1269,-1.1318,-1.1333,-1.1345,0,0,0,0,0,0,-1.0804,-1.0833,-1.082,-1.0907,-1.0937,-1.0965,-1.1011,-1.0995,-1.1036,-1.1029,-1.1025,-1.1034,-1.1111,-1.1127,-1.1083,-1.1218,-1.1173,-1.1184,-1.1206,-1.122,-1.1231,-1.1227,-1.104,0,0,0,0,0,-1.0824,-1.0873,-1.0896,-1.0971,-1.0986,-1.0996,-1.1023,-1.1019,-1.105,-1.1063,-1.1081,-1.1113,-1.1159,-1.119,-1.1234,-1.1324,-1.1331,-1.1365,-1.1376,-1.1385,-1.1395,-1.1443,-1.1459,-1.1295,-1.1295,-1.1295,0,0,-1.0868,-1.089,-1.0922,-1.0981,-1.1004,-1.1054,-1.1007,-1.1063,-1.11,-1.1071,-1.1143,-1.1157,-1.1192,-1.1274,-1.1312,-1.129,-1.1441,-1.1394,-1.1402,-1.1406,-1.1452,-1.1468,-1.1481,-1.13,-1.1299,-1.1298,0,0,-1.0974,-1.0995,-1.1059,-1.1082,-1.1117,-1.1122,-1.1138,-1.1168,-1.1176,-1.1248,-1.1227,-1.1271,-1.1351,-1.1376,-1.14,-1.1512,-1.1495,-1.1526,-1.1585,-1.1632,-1.1645,-1.1657,-1.1697,-1.1712,-1.1535,-1.1535,-1.1535,0,-1.1024,-1.1099,-1.1094,-1.1151,-1.1178,-1.1152,-1.1217,-1.124,-1.1287,-1.1306,-1.128,-1.138,-1.1401,-1.1489,-1.1516,-1.1536,-1.1553,-1.1523,-1.1644,-1.1655,-1.1666,-1.1704,-1.1719,-1.1539,-1.1539,-1.1538,-1.1538,0,-1.1159,-1.1212,-1.1259,-1.1305,-1.1336,-1.1397,-1.14,-1.1433,-1.1425,-1.1433,-1.1505,-1.1529,-1.1577,-1.1597,-1.1591,-1.1684,-1.1669,-1.1644,-1.1599,-1.1685,-1.1721,-1.1736,-1.1544,-1.1543,-1.1542,-1.1541,0,0,-1.1301,-1.1341,-1.1358,-1.1378,-1.1413,-1.1454,-1.1512,-1.1559,-1.1587,-1.1619,-1.1669,-1.1736,-1.1712,-1.1738,-1.1733,-1.1775,-1.1862,-1.1744,-1.1744,-1.1766,-1.1966,-1.1986,-1.2003,-1.1849,-1.1852,-1.1854,-1.1963,0,-1.1409,-1.1512,-1.1508,-1.1604,-1.1652,-1.1628,-1.1678,-1.1705,-1.1714,-1.1755,-1.1764,-1.1812,-1.1776,-1.1792,-1.1831,-1.1843,-1.1902,-1.1835,-1.1896,-1.1898,-1.189,-1.2022,-1.2044,-1.2146,-1.1977,-1.198,-1.1981,0,-1.1551,-1.1588,-1.1689,-1.1715,-1.1735,-1.1781,-1.1822,-1.1862,-1.1892,-1.1894,-1.1923,-1.1911,-1.1969,-1.1921,-1.2002,-1.1956,-1.198,-1.1989,-1.1993,-1.2,-1.1946,-1.2034,-1.2178,-1.2194,-1.2003,-1.2002,-1.2,0,-1.1645,-1.1719,-1.1789,-1.1807,-1.1839,-1.1872,-1.1887,-1.1913,-1.1941,-1.1976,-1.1994,-1.2036,-1.206,-1.2092,-1.2092,-1.2057,-1.2174,-1.2125,-1.2178,-1.2178,-1.2206,-1.2204,-1.2357,-1.2219,-1.2219,-1.2218,-1.2218,0,-1.1768,-1.1831,-1.1831,-1.1875,-1.1944,-1.1937,-1.2006,-1.2017,-1.2041,-1.2085,-1.2065,-1.2108,-1.2104,-1.2146,-1.2146,-1.2212,-1.2223,-1.2227,-1.2226,-1.223,-1.2229,-1.2247,-1.224,-1.2222,-1.2221,-1.2221,-1.222,0,-1.1886,-1.1889,-1.1963,-1.1987,-1.1994,-1.2044,-1.2065,-1.2105,-1.211,-1.2167,-1.218,-1.2188,-1.2237,-1.2239,-1.2295,-1.2294,-1.2376,-1.2367,-1.2366,-1.2365,-1.2418,-1.2413,-1.2589,-1.2612,-1.2457,-1.2459,-1.246,0,-1.1965,-1.2013,-1.2041,-1.2069,-1.2086,-1.2132,-1.2159,-1.2154,-1.2183,-1.2219,-1.2255,-1.2301,-1.2339,-1.2417,-1.2428,-1.247,-1.2463,-1.2521,-1.2469,-1.2471,-1.2465,-1.2463,-1.2467,-1.2532,-1.2534,-1.2535,-1.2536,0,-1.2106,-1.2104,-1.2145,-1.2186,-1.2219,-1.2251,-1.228,-1.2304,-1.2302,-1.2336,-1.2385,-1.2413,-1.2469,-1.2516,-1.2556,-1.2571,-1.2554,-1.2552,-1.2567,-1.2572,-1.257,-1.2572,-1.2395,-1.2549,-1.2548,-1.2547,-1.2546,-1.2546,-1.2208,-1.2248,-1.2274,-1.232,-1.2341,-1.2368,-1.2407,-1.2417,-1.2457,-1.2503,-1.2496,-1.2551,-1.2577,-1.2629,-1.2647,-1.2689,-1.2669,-1.269,-1.2696,-1.2702,-1.2708,-1.2561,-1.2697,-1.2696,-1.2696,-1.2696,-1.2695,0,-1.2348,-1.2363,-1.2404,-1.2446,-1.2481,-1.246,-1.249,-1.2522,-1.257,-1.2595,-1.2631,-1.2687,-1.2731,-1.2745,-1.2787,-1.2818,-1.2811,-1.283,-1.2828,-1.2832,-1.2723,-1.2707,-1.2835,-1.2835,-1.2834,-1.2834,-1.2834,-1.2834,-1.2425,-1.2493,-1.2494,-1.2572,-1.2586,-1.2639,-1.2658,-1.2683,-1.2703,-1.2766,-1.2803,-1.2811,-1.2831,-1.2874,-1.2913,-1.2916,-1.2933,-1.2955,-1.2955,-1.2853,-1.284,-1.2826,-1.2811,-1.2959,-1.2959,-1.306,-1.3061,-1.3062]},{"header":{"parameterUnit":"m.s-1","parameterCategory":1,"la1":30.2991,"la2":30.254,"lo1":-89.0895,"lo2":-89.0444,"dx":0.0017,"dy":0.0017,"nx":28,"ny":28,"refTime":"2022-11-12T09:00:00:Z","depth":0,"parameterNumber":3,"parameterNumberName":"V-component_of_WINDS"},"data":[0,0,0,0,0,0,0,0,0,0,0,0,0,0,0,0,0,0,0,0,0,0,0,0,0,0,0,0,0,0,0,0,0,0,0,0,0,0,0,0,0,0,0,0,0,0,0,0,0,0,0,0,0,0,0,0,0,0,-8.0645,-8.0647,0,-8.0812,-8.0813,-8.0815,-8.072,-8.0715,-8.071,-8.0706,-8.0869,-8.0877,-8.0886,0,0,0,0,0,0,0,0,0,0,0,0,0,-8.0235,-8.0243,-8.0645,-8.0647,-8.0649,-8.0811,-8.0813,-8.0816,-8.072,-8.0715,-8.0709,-8.0704,-8.0866,-8.0876,-8.0887,0,0,0,0,0,0,0,0,0,0,0,0,0,-8.0409,-8.0246,-8.0644,-8.0621,-8.0621,-8.0811,-8.0814,-8.0816,-8.0722,-8.0715,-8.0708,-8.0701,-8.0863,-8.0875,-8.0888,-8.1108,0,0,-8.0928,-8.0933,0,0,0,0,0,0,0,0,-8.0399,-8.0424,-8.0622,-8.0623,-8.0623,-8.0738,-8.0729,-8.0914,-8.0723,-8.0683,-8.0706,-8.0698,-8.083,-8.0846,-8.0892,-8.1116,-8.1123,-8.0929,-8.0937,-8.0942,-8.0946,0,0,0,0,0,0,0,-8.0387,-8.0416,-8.071,-8.0625,-8.0626,-8.0599,-8.0616,-8.0763,-8.0793,-8.0686,-8.068,-8.0701,-8.0829,-8.088,-8.0895,-8.1125,-8.0929,-8.094,-8.0948,-8.0953,-8.1535,-8.1542,0,0,0,0,0,0,-8.0378,-8.0407,-8.0705,-8.0715,-8.0492,-8.0613,-8.0631,-8.0708,-8.0792,-8.0798,-8.0707,-8.0696,-8.0861,-8.088,-8.09,-8.1162,-8.0942,-8.0955,-8.0962,-8.1527,-8.1537,-8.1545,0,0,0,0,0,0,-8.0369,-8.0405,-8.0698,-8.0559,-8.0595,-8.0627,-8.0714,-8.0715,-8.0765,-8.0808,-8.0811,-8.0754,-8.0856,-8.0882,-8.1057,-8.1167,-8.096,-8.0972,-8.1518,-8.153,-8.1541,-8.1689,0,0,0,0,0,0,-8.0358,-8.0403,-8.0489,-8.0562,-8.0603,-8.0856,-8.072,-8.0723,-8.0789,-8.0776,-8.0852,-8.0858,-8.0853,-8.1038,-8.107,-8.1181,-8.0982,-8.1509,-8.1524,-8.1537,-8.1674,-8.1704,-8.1729,0,0,0,0,0,-8.0344,-8.0523,-8.0494,-8.0531,-8.0712,-8.0862,-8.0885,-8.0877,-8.0798,-8.0884,-8.091,-8.0856,-8.115,-8.1057,-8.1092,-8.1208,-8.1502,-8.1519,-8.1536,-8.1662,-8.1698,-8.1729,0,0,0,0,0,0,-8.046,-8.0532,-8.0501,-8.071,-8.0781,-8.0846,-8.0954,-8.0916,-8.1009,-8.0993,-8.0976,-8.0994,-8.1177,-8.121,-8.1105,-8.1424,-8.1313,-8.1338,-8.1396,-8.1431,-8.1458,-8.1446,-8.0993,0,0,0,0,0,-8.051,-8.0629,-8.0685,-8.0863,-8.0901,-8.0922,-8.0987,-8.0975,-8.1046,-8.1075,-8.1115,-8.1185,-8.1292,-8.1363,-8.1465,-8.1678,-8.1692,-8.1775,-8.1802,-8.1825,-8.1847,-8.196,-8.1997,-8.1601,-8.1601,-8.1601,0,0,-8.0614,-8.0668,-8.0744,-8.0888,-8.0942,-8.1063,-8.0947,-8.108,-8.1169,-8.1095,-8.1263,-8.1294,-8.137,-8.1566,-8.1653,-8.1598,-8.1959,-8.1847,-8.1864,-8.1874,-8.1981,-8.2019,-8.2052,-8.1613,-8.1611,-8.1609,0,0,-8.0866,-8.092,-8.1074,-8.1131,-8.1214,-8.1226,-8.1263,-8.1335,-8.1353,-8.1522,-8.1468,-8.1572,-8.1758,-8.1814,-8.1867,-8.2139,-8.2092,-8.2172,-8.2316,-8.2426,-8.2457,-8.2485,-8.258,-8.2615,-8.2194,-8.2194,-8.2194,0,-8.0984,-8.1168,-8.1158,-8.1295,-8.1359,-8.1299,-8.1453,-8.1507,-8.1619,-8.1663,-8.16,-8.1832,-8.1879,-8.2086,-8.2152,-8.2197,-8.2237,-8.2163,-8.2454,-8.2482,-8.2507,-8.2598,-8.2634,-8.2203,-8.2202,-8.2201,-8.22,0,-8.1308,-8.1435,-8.1549,-8.1661,-8.1737,-8.1882,-8.1892,-8.1969,-8.195,-8.1968,-8.2139,-8.2194,-8.2304,-8.2352,-8.2334,-8.2556,-8.2519,-8.2456,-8.2344,-8.2554,-8.2639,-8.2674,-8.2216,-8.2213,-8.221,-8.2208,0,0,-8.1638,-8.1742,-8.1784,-8.1833,-8.192,-8.2017,-8.2158,-8.2269,-8.2335,-8.2413,-8.2529,-8.2688,-8.263,-8.269,-8.2677,-8.2774,-8.2984,-8.2698,-8.27,-8.2748,-8.3229,-8.3276,-8.3316,-8.2953,-8.2959,-8.2964,-8.3222,0,-8.1895,-8.2145,-8.2139,-8.237,-8.2486,-8.243,-8.2552,-8.2617,-8.2637,-8.2736,-8.2756,-8.2869,-8.2784,-8.282,-8.2914,-8.2938,-8.308,-8.292,-8.3058,-8.3063,-8.3041,-8.3361,-8.3411,-8.3652,-8.3255,-8.3261,-8.3265,0,-8.2228,-8.232,-8.2563,-8.2632,-8.268,-8.2791,-8.289,-8.2987,-8.3058,-8.3065,-8.3132,-8.3103,-8.3243,-8.3127,-8.3318,-8.3209,-8.3265,-8.3285,-8.3294,-8.3306,-8.3177,-8.3381,-8.3728,-8.3764,-8.3317,-8.3313,-8.3309,0,-8.2444,-8.2627,-8.2796,-8.284,-8.2924,-8.3003,-8.3041,-8.3106,-8.3172,-8.3258,-8.33,-8.3401,-8.3456,-8.3533,-8.3531,-8.3447,-8.3723,-8.3607,-8.3731,-8.3731,-8.3792,-8.3788,-8.4153,-8.3829,-8.3829,-8.3828,-8.3827,0,-8.2731,-8.2881,-8.2894,-8.2998,-8.3163,-8.3154,-8.3317,-8.3347,-8.3405,-8.3511,-8.3468,-8.3568,-8.3559,-8.3659,-8.3658,-8.3815,-8.384,-8.3848,-8.3846,-8.3852,-8.3851,-8.3888,-8.3871,-8.3837,-8.3835,-8.3833,-8.3832,0,-8.2999,-8.3014,-8.3194,-8.326,-8.328,-8.3399,-8.3453,-8.355,-8.3566,-8.3701,-8.3731,-8.3755,-8.3871,-8.3877,-8.4009,-8.4008,-8.4198,-8.4178,-8.4176,-8.4171,-8.4294,-8.4282,-8.4695,-8.4748,-8.4391,-8.4394,-8.4397,0,-8.3181,-8.3296,-8.3374,-8.3444,-8.3487,-8.3599,-8.3667,-8.3661,-8.3733,-8.3822,-8.3907,-8.4019,-8.4108,-8.4294,-8.4322,-8.4422,-8.4403,-8.454,-8.4417,-8.4419,-8.4403,-8.4397,-8.4407,-8.4564,-8.4568,-8.4571,-8.4574,0,-8.3502,-8.3504,-8.3605,-8.3709,-8.3791,-8.3872,-8.3947,-8.4005,-8.4007,-8.4089,-8.4208,-8.4278,-8.4413,-8.4524,-8.4621,-8.4656,-8.4616,-8.4613,-8.4646,-8.4653,-8.4647,-8.4651,-8.424,-8.4603,-8.46,-8.4598,-8.4596,-8.4595,-8.3733,-8.3832,-8.3902,-8.4015,-8.4071,-8.4142,-8.4236,-8.4264,-8.4364,-8.4476,-8.4465,-8.4596,-8.4661,-8.4788,-8.4832,-8.4932,-8.4885,-8.4934,-8.4946,-8.4958,-8.4971,-8.4632,-8.495,-8.4949,-8.4948,-8.4947,-8.4947,0,-8.4051,-8.4093,-8.4198,-8.4304,-8.4393,-8.4349,-8.4428,-8.4505,-8.4622,-8.4687,-8.4776,-8.4911,-8.5018,-8.5054,-8.5156,-8.523,-8.5213,-8.5257,-8.5251,-8.5259,-8.5008,-8.4968,-8.5268,-8.5268,-8.5268,-8.5268,-8.5268,-8.5268,-8.4227,-8.4391,-8.4401,-8.4591,-8.4631,-8.4762,-8.4811,-8.4875,-8.4927,-8.5081,-8.5171,-8.5194,-8.5247,-8.5353,-8.5447,-8.5455,-8.5494,-8.5545,-8.5545,-8.5309,-8.5277,-8.5246,-8.5209,-8.5554,-8.5555,-8.5787,-8.579,-8.5791]}]]